World > North America > United States > Iowa > Faulkner

Hourly Faulkner, IA Regional Weather

Feedback E-mail the Weather

Quick WX

Faulkner, IA Weather Maps

°F °C°F °C
Faulkner Weather Map
UTC Time: 8/14/2022, 07:18
Your Time:

Faulkner, IA Regional Weather

Expires:202208140800;;067949
ASUS43 KDMX 140706
RWRIA 

WEATHER ROUNDUP FOR IOWA
NATIONAL WEATHER SERVICE DES MOINES IA
200 AM CDT SUN AUG 14 2022

NOTE: "FAIR" INDICATES FEW OR NO CLOUDS BELOW 12,000 FEET WITH NO
SIGNIFICANT WEATHER AND/OR OBSTRUCTIONS TO VISIBILITY.

* - THESE STATIONS ARE NOT NWS STATIONS...THUS NOT UNDER NWS
QUALITY CONTROL.  THEY ALSO DO NOT REPORT WEATHER SUCH 
AS PRECIPITATION OR FOG.  


IAZ007>011-017>019-026>030-037>042-050>054-066-140800-
   NORTHEAST IOWA
  
CITY           SKY/WX    TMP DP  RH WIND       PRES   REMARKS
CEDAR RAPIDS   CLOUDY    68  65  90 N10       29.94F                  
CHARLES CITY * CLOUDY    64  64 100 N9        29.99F                  
CLINTON *      CLOUDY    70  32  24 N9        29.91S                  
DECORAH *      CLOUDY    63  63 100 N8        29.97S                  
DUBUQUE        CLOUDY    68  68 100 N12       29.94S FOG              
OELWEIN *      CLOUDY    64  63  94 N6        29.97F                  
WATERLOO       CLOUDY    67  62  84 NW7       29.97S                  
$$
 

SKY/WX - Weather  TMP - Temperature  DP - Dew Point  RH - Humidity
WIND - Wind Direction/Speed PRES - Barometric Pressure VSB - Visibility
WCI - Wind Chill Index E13G22 Wind - East Wind 13 mph/Gusts of 22 mph

Trending Headlines

Faulkner Radar Loop



Faulkner Quick Facts


National Two Day Weather Forecast


E-mail the Faulkner Weather Forecast

Voice your opinion or tell us about page issues...